Weather Roundup
Issued by NWS

Home | Current Version | Previous Version | Graphics & Text | Print | Product List | Glossary Off
Versions: 1 2 3 4 5 6 7 8 9 10 11 12 13 14 15 16 17 18 19 20 21 22 23 24 25 26 27 28 29 30 31 32 33 34 35 36 37 38 39 40 41 42 43 44 45 46 47 48 49 50

000
NZUS93 KARX 292359
HRRWXR

CURRENT HOURLY OBSERVATIONS ACROSS
MUCH OF THE UPPER MISSISSIPPI VALLEY
NATIONAL WEATHER SERVICE LA CROSSE WI
700 PM CDT MON AUG 29 2016


...SOUTHEAST MINNESOTA...


CITY           SKY/WX    TMP DP  RH WIND       PRES   REMARKS
ROCHESTER      PTCLDY    79  72  79 S6        30.17F
ROCHESTER/MAYO FAIR      81  71  72 S7        30.16F
WINONA         MOCLDY    79  70  73 CALM      30.14F
AUSTIN         CLEAR     79  70  73 S3        30.17R
ALBERT LEA     CLEAR     79  66  65 CALM      30.17R
DODGE CENTER   CLEAR     81  70  69 S6        30.16F
PRESTON        CLOUDY    77  70  79 S5        30.19S
OWATONNA       CLEAR     81  70  69 SW3       30.15S
FARIBAULT      CLEAR     81  70  69 S3        30.14S
$$

...ELSEWHERE IN MINNESOTA...


CITY           SKY/WX    TMP DP  RH WIND       PRES   REMARKS
MINNEAPOLIS    MOCLDY    83  69  62 SW9       30.11F
INTNL FALLS    CLEAR     75  63  66 NW6       30.10S
DULUTH         CLOUDY    80  69  69 CALM      30.10F
RED WING       CLEAR     82  70  65 CALM      30.11S
REDWOOD FALLS  CLOUDY    82  72  71 SW7       30.12S
MANKATO        NOT AVBL
WORTHINGTON    MOSUNNY   78  68  71 S3        30.17R
FAIRMONT       CLEAR     78  72  81 S8        30.16R
$$

...SOUTHWEST WISCONSIN...


CITY           SKY/WX    TMP DP  RH WIND       PRES   REMARKS
LA CROSSE      CLOUDY    81  73  76 S7        30.14F
PRAIRIE DU CHI CLOUDY    77  73  88 CALM      30.14F
BOSCOBEL       CLOUDY    80  74  81 CALM      30.16F
LONE ROCK      NOT AVBL
PLATTEVILLE    CLOUDY    78  76  93 E3        30.19S
FORT MC COY    CLOUDY    78  72  79 S3        30.17F
MAUSTON-NEW LI MOCLDY    79  72  79 S3        30.18R
VIROQUA        FAIR      76  71  85 SE3       30.19S
WIS DELLS      NOT AVBL
$$

...ELSEWHERE IN WISCONSIN...


CITY           SKY/WX    TMP DP  RH WIND       PRES   REMARKS
MILWAUKEE      CLOUDY    78  70  76 SE3       30.18F
MADISON        MOCLDY    79  71  76 SE6       30.18S
GREEN BAY      MOCLDY    78  72  81 S6        30.16F
EAU CLAIRE     NOT AVBL
BLACK RVR FLS  FAIR      81  70  70 S3        30.16S
MEDFORD        CLEAR     78  73  85 SW5       30.18F
WAUSAU         PTCLDY    79  68  69 S7        30.16F
WIS RAPIDS     MOCLDY    77  72  84 S3        30.19S
MARSHFIELD     CLOUDY    78  69  73 S7        30.17F
RICE LAKE      PTCLDY    78  69  73 S3        30.15F
$$

...NORTHEAST IOWA...


CITY           SKY/WX    TMP DP  RH WIND       PRES   REMARKS
WATERLOO       CLOUDY    71  68  90 N8        30.17R
DUBUQUE        CLOUDY    76  72  87 SE5       30.18F
DECORAH        PTCLDY    77  73  88 CALM      30.17S
MASON CITY     CLEAR     74  69  85 S8        30.20R
CHARLES CITY   CLOUDY    77  75  94 S5        30.18S
OELWEIN        CLOUDY    73  72  94 NW6       30.19R
$$

...ELSEWHERE IN IOWA...


CITY           SKY/WX    TMP DP  RH WIND       PRES   REMARKS
DES MOINES     CLOUDY    75  70  84 E8        30.16R
IOWA CITY      CLOUDY    74  70  87 SE5       30.15F
FORT DODGE     CLOUDY    75  68  78 SE7       30.18S
MARSHALLTOWN   CLOUDY    71  69  93 SE8       30.17S
CEDAR RAPIDS   CLOUDY    74  70  87 CALM      30.16S
$$

...NORTHERN ILLINOIS...


CITY           SKY/WX    TMP DP  RH WIND       PRES   REMARKS
CHICAGO-OHARE  LGT RAIN  75  72  90 N6        30.19R FOG
CHICAGO-MIDWAY LGT RAIN  80  72  76 N7        30.18S
MOLINE         MOCLDY    79  72  79 E7        30.14F
ROCKFORD       LGT RAIN  72  69  90 S6        30.19F
PEORIA         LGT RAIN  77  76  96 NE5       30.14F
$$

NOTE: "FAIR" INDICATES FEW OR NO CLOUDS BELOW 12,000 FEET WITH NO
SIGNIFICANT WEATHER AND/OR OBSTRUCTIONS TO VISIBILITY. WIND
SPEEDS ARE IN MILES-PER-HOUR.




USA.gov is the U.S. government's official web portal to all federal, state and local government web resources and services.